Weather History for KEWR - November, 2012

Change the Weather History Date:

Sunday, November 11, 2012

  Actual Average Record
Temperature  
Mean Temperature 54 °F 48 °F  
Max Temperature 65 °F 56 °F 75 °F (1949)
Min Temperature 43 °F 40 °F 25 °F (1956)
Degree Days  
Heating Degree Days 11 17  
Month to date heating degree days 225 166  
Since 1 July heating degree days 452 487  
Cooling Degree Days 0 0  
Month to date cooling degree days 0 0  
Year to date cooling degree days 1450 1191  
Growing Degree Days 4 (Base 50)    
Moisture  
Dew Point 46 °F    
Average Humidity 73    
Maximum Humidity 93    
Minimum Humidity 52    
Precipitation  
Precipitation 0.00 in 0.11 in 1.35 in (1995)
Month to date precipitation 1.08 1.28  
Year to date precipitation 30.75 40.07  
Snow  
Snow 0.00 in 0.00 in 1.30 in (1987)
Month to date snowfall 6.2 0.0  
Since 1 July snowfall 6.2 0.0  
Snow Depth 0.00 in    
Sea Level Pressure  
Sea Level Pressure 30.46 in    
Wind  
Wind Speed 3 mph (SSE)    
Max Wind Speed 10 mph    
Max Gust Speed 14 mph    
Visibility 8 miles    
Events      
T = Trace of Precipitation, MM = Missing Value Source: NWS Daily Summary

Daily Weather History Graph

Daily Weather History Graph

Search for Another Location

Airport or City:

Trip Planner

Search our weather history database for the weather conditions in past years. The results will help you decide how hot, cold, wet, or windy it might be!

Date:

Astronomy

Nov. 11, 2012 Rise Set
Actual Time 6:39 AM EST 4:41 PM EST
Civil Twilight 6:10 AM EST 5:10 PM EST
Nautical Twilight 5:37 AM EST 5:43 PM EST
Astronomical Twilight 5:05 AM EST 6:15 PM EST
Moon 3:49 AM EST (11/11) 3:04 PM EST (11/11)
Length of Visible Light 11h 00m
Length of Day
10h 02m
Waning Crescent, 7% of the Moon is Illuminated
Nov 11
Waning Crescent
Nov 13
New
Nov 20
First Quarter
Nov 28
Full
Dec 6
Last Quarter

Hourly Weather History & Observations

Time (EST) Temp. Windchill Dew Point Humidity Pressure Visibility Wind Dir Wind Speed Gust Speed Precip Events Conditions
12:51 AM 48.9 °F - 39.9 °F 71% 30.42 in 8.0 mi Calm Calm - N/A   Overcast
1:51 AM 46.9 °F - 39.9 °F 77% 30.42 in 6.0 mi Calm Calm - N/A   Haze
2:51 AM 48.0 °F - 42.1 °F 80% 30.42 in 6.0 mi Calm Calm - N/A   Haze
3:51 AM 44.6 °F 43.1 °F 39.2 °F 81% 30.43 in 7.0 mi North 3.5 mph - N/A   Scattered Clouds
4:51 AM 43.0 °F - 39.9 °F 89% 30.46 in 7.0 mi Calm Calm - N/A   Mostly Cloudy
5:51 AM 46.0 °F - 42.1 °F 86% 30.45 in 5.0 mi Calm Calm - N/A   Partly Cloudy
6:51 AM 44.1 °F - 42.1 °F 93% 30.45 in 5.0 mi Calm Calm - N/A   Scattered Clouds
7:51 AM 50.0 °F - 48.0 °F 93% 30.48 in 4.0 mi Calm Calm - N/A   Scattered Clouds
8:51 AM 54.0 °F - 48.9 °F 83% 30.49 in 7.0 mi Calm Calm - N/A   Mostly Cloudy
9:51 AM 55.9 °F - 48.9 °F 77% 30.49 in 7.0 mi Variable 4.6 mph - N/A   Scattered Clouds
10:51 AM 57.9 °F - 48.0 °F 70% 30.48 in 8.0 mi Variable 3.5 mph - N/A   Scattered Clouds
11:51 AM 61.0 °F - 46.9 °F 60% 30.46 in 10.0 mi SW 4.6 mph - N/A   Partly Cloudy
12:51 PM 63.0 °F - 46.9 °F 56% 30.44 in 10.0 mi South 4.6 mph - N/A   Partly Cloudy
1:51 PM 64.0 °F - 46.9 °F 54% 30.43 in 10.0 mi SSW 6.9 mph - N/A   Partly Cloudy
2:51 PM 63.0 °F - 48.9 °F 60% 30.43 in 10.0 mi East 6.9 mph - N/A   Partly Cloudy
3:51 PM 62.1 °F - 48.9 °F 62% 30.44 in 10.0 mi East 4.6 mph - N/A   Partly Cloudy
4:51 PM 59.0 °F - 51.1 °F 75% 30.44 in 9.0 mi East 4.6 mph - N/A   Scattered Clouds
5:51 PM 57.0 °F - 51.1 °F 81% 30.45 in 10.0 mi Calm Calm - N/A   Scattered Clouds
6:51 PM 55.4 °F - 51.8 °F 88% 30.46 in 10.0 mi Calm Calm - N/A   Scattered Clouds
7:51 PM 54.0 °F - 46.9 °F 77% 30.47 in 10.0 mi South 5.8 mph - N/A   Scattered Clouds
8:51 PM 54.0 °F - 45.0 °F 72% 30.48 in 10.0 mi South 6.9 mph - N/A   Mostly Cloudy
9:51 PM 53.6 °F - 44.6 °F 72% 30.48 in 10.0 mi South 3.5 mph - N/A   Overcast
10:51 PM 53.1 °F - 46.0 °F 77% 30.48 in 10.0 mi South 3.5 mph - N/A   Overcast
11:51 PM 51.8 °F - 46.4 °F 82% 30.47 in 10.0 mi Calm Calm - N/A   Overcast